Regional Weather Roundup
Issued by NWS Cleveland, OH

Home | Current Version | Previous Version | Graphics & Text | Print | Product List | Glossary On
Versions: 1 2 3 4 5 6 7 8 9 10 11 12 13 14 15 16 17 18 19 20 21 22 23 24 25 26 27 28 29 30 31 32 33 34 35 36 37 38 39 40 41 42 43 44 45 46 47 48 49 50
000
ASUS41 KCLE 221500
RWRCLE
OHIO REGIONAL WEATHER ROUNDUP
NATIONAL WEATHER SERVICE WILMINGTON, OH
1000 AM EST MON JAN 22 2018

NOTE: "FAIR" INDICATES FEW OR NO CLOUDS BELOW 12,000 FEET WITH NO
SIGNIFICANT WEATHER AND/OR OBSTRUCTIONS TO VISIBILITY.

OHZ001>008-015>018-024>027-034-035-043-044-221600-
   NORTHWEST OHIO

CITY           SKY/WX    TMP DP  RH WIND       PRES   REMARKS
DEFIANCE       FAIR      53  43  68 S15       29.78F
FINDLAY        FAIR      51  43  74 S15       29.82F
TOLEDO EXPRESS CLOUDY    49  47  93 S8        29.80F
TOLEDO EXEC    PTSUNNY   50  45  83 S14       29.83S
LIMA           FAIR      52  45  77 S14       29.82F
$$

OHZ009>014-019>023-028>033-038-089-221600-
   NORTHEAST OHIO

CITY           SKY/WX    TMP DP  RH WIND       PRES   REMARKS
CLE-HOPKINS    CLOUDY    55  46  71 S14G26    29.92F
CLE-LAKEFRONT  PTSUNNY   52  45  77 SE21G28   29.89F
CUY CO. ARPT   CLOUDY    52  32  46 S12G21    29.92F
LORAIN-ELYRIA  CLOUDY    49  42  77 S15       29.89F
ASHTABULA      CLOUDY    47  46  97 S8        29.95F
AKRON-CANTON   CLOUDY    49  44  83 S12       29.95S
WOOSTER        NOT AVBL
MANSFIELD      CLOUDY    51  45  79 S14       29.91R
YOUNGSTOWN     CLOUDY    49  46  90 S13       29.96F
$$

OHZ042-051>053-060>062-070>072-077>081-221600-
  SOUTHWEST OHIO

CITY           SKY/WX    TMP DP  RH WIND       PRES   REMARKS
CINC-COVINGTON CLOUDY    57  46  66 S16       29.86F
CINC-LUNKEN    FAIR      57  45  64 S12       29.89S
HAMILTON       PTSUNNY   56  45  66 VRB5      29.88S
DAYTON         NOT AVBL
WRIGHT-PAT AFB PTSUNNY   55  40  58 S15       29.86F
DAYTON GENERAL FAIR      55  45  68 S10       29.86F
WILMINGTON     FAIR      53  46  77 S13       29.89S
$$

OHZ036-037-039>041-045>050-054>059-063>069-073>076-082>088-221600-
  CENTRAL AND SOUTHEAST OHIO

CITY           SKY/WX    TMP DP  RH WIND       PRES   REMARKS
COLUMBUS       CLOUDY    53  45  74 SE8       29.92R
OSU AIRPORT    PTSUNNY   53  47  79 SE12G21   29.90S
BOLTON FIELD   CLOUDY    50  45  81 S9        29.92R
RICKENBACK AFB NOT AVBL
NEWARK         CLOUDY    50  43  77 S5        29.93S
MARION         FAIR      51  44  77 S15       29.89S
LANCASTER      FAIR      53  46  77 SE8       29.94R
ZANESVILLE     FAIR      53  45  74 S7        29.96R
NEW PHILLY     PTSUNNY   47  45  93 CALM      29.97S
$$




USA.gov is the U.S. government's official web portal to all federal, state and local government web resources and services.